[[{"header":{"parameterUnit":"m.s-1","parameterCategory":1,"la1":30.2991,"la2":30.254,"lo1":-89.0895,"lo2":-89.0444,"dy":0.0017,"dx":0.0017,"nx":28,"ny":28,"refTime":"2025-03-07T09:00:00:Z","depth":0,"parameterNumber":2,"parameterNumberName":"U-component_of_WINDS"},"data":[0,0,0,0,0,0,0,0,0,0,0,0,0,0,0,0,0,0,0,0,0,0,0,0,0,0,0,0,0,0,0,0,0,0,0,0,0,0,0,0,0,0,0,0,0,0,0,0,0,0,0,0,0,0,0,0,0,0,1.3523,1.3524,0,1.3589,1.359,1.3591,1.355,1.3548,1.3546,1.3544,1.3613,1.3616,1.362,0,0,0,0,0,0,0,0,0,0,0,0,0,1.3361,1.3365,1.3523,1.3524,1.3525,1.3589,1.359,1.3591,1.3551,1.3548,1.3546,1.3544,1.3612,1.3616,1.362,0,0,0,0,0,0,0,0,0,0,0,0,0,1.343,1.3366,1.3523,1.3512,1.3512,1.3589,1.359,1.3591,1.3551,1.3548,1.3545,1.3543,1.361,1.3616,1.3621,1.3712,0,0,1.3638,1.364,0,0,0,0,0,0,0,0,1.3426,1.3436,1.3513,1.3513,1.3513,1.3559,1.3558,1.3632,1.3552,1.3536,1.3544,1.3541,1.3597,1.3604,1.3622,1.3716,1.3718,1.3638,1.3641,1.3644,1.3645,0,0,0,0,0,0,0,1.3421,1.3433,1.3549,1.3514,1.3514,1.3504,1.3511,1.3572,1.3582,1.3537,1.3535,1.3543,1.3597,1.3617,1.3624,1.3719,1.3638,1.3643,1.3646,1.3648,1.3888,1.3891,0,0,0,0,0,0,1.3418,1.3429,1.3547,1.3551,1.3462,1.3509,1.3517,1.3547,1.3581,1.3584,1.3545,1.3541,1.3609,1.3617,1.3626,1.3733,1.3644,1.3649,1.3652,1.3885,1.3889,1.3892,0,0,0,0,0,0,1.3414,1.3428,1.3545,1.349,1.3504,1.3515,1.3549,1.355,1.357,1.3587,1.3589,1.3564,1.3607,1.3618,1.369,1.3735,1.3651,1.3656,1.3881,1.3886,1.3891,1.3949,0,0,0,0,0,0,1.341,1.3428,1.3463,1.3491,1.3507,1.3608,1.3552,1.3553,1.3579,1.3574,1.3606,1.3608,1.3606,1.3683,1.3696,1.3741,1.366,1.3877,1.3884,1.3889,1.3943,1.3955,1.3966,0,0,0,0,0,1.3404,1.3477,1.3465,1.3479,1.3551,1.3611,1.362,1.3616,1.3583,1.3618,1.3629,1.3607,1.3728,1.369,1.3705,1.3752,1.3875,1.3882,1.3889,1.3938,1.3953,1.3965,0,0,0,0,0,0,1.3455,1.3481,1.3467,1.3552,1.3579,1.3604,1.3648,1.3632,1.367,1.3663,1.3657,1.3664,1.3739,1.3753,1.371,1.3841,1.3796,1.3806,1.3829,1.3843,1.3854,1.3848,1.3665,0,0,0,0,0,1.3476,1.3523,1.3543,1.3615,1.363,1.3637,1.3663,1.3657,1.3686,1.3697,1.3714,1.3742,1.3786,1.3816,1.3858,1.3946,1.3951,1.3985,1.3996,1.4005,1.4014,1.4059,1.4074,1.3915,1.3915,1.3915,0,0,1.352,1.354,1.357,1.3626,1.3647,1.3695,1.3647,1.3701,1.3736,1.3706,1.3774,1.3787,1.3818,1.3898,1.3934,1.3912,1.4059,1.4014,1.4021,1.4025,1.4068,1.4083,1.4096,1.392,1.3919,1.3918,0,0,1.3624,1.3644,1.3706,1.3727,1.3759,1.3763,1.3778,1.3805,1.3812,1.388,1.3858,1.39,1.3977,1.3999,1.4021,1.4132,1.4112,1.4146,1.4203,1.4247,1.426,1.4271,1.4308,1.4322,1.4155,1.4155,1.4155,0,1.3674,1.3745,1.3739,1.3794,1.3818,1.3793,1.3854,1.3876,1.392,1.3937,1.3912,1.4006,1.4026,1.4109,1.4136,1.4155,1.4171,1.4142,1.4259,1.427,1.428,1.4315,1.433,1.4158,1.4158,1.4158,1.4157,0,1.3805,1.3855,1.39,1.3942,1.3972,1.403,1.4032,1.4063,1.4055,1.4061,1.413,1.4152,1.4197,1.4217,1.421,1.4299,1.4284,1.4259,1.4214,1.4299,1.4332,1.4346,1.4164,1.4162,1.4161,1.416,0,0,1.3942,1.3979,1.3996,1.4013,1.4046,1.4084,1.4141,1.4184,1.4209,1.4241,1.4286,1.4351,1.4328,1.4352,1.4347,1.4386,1.447,1.4356,1.4357,1.4375,1.4567,1.4584,1.46,1.4458,1.446,1.4462,1.4564,0,1.4046,1.4144,1.4139,1.423,1.4275,1.425,1.4299,1.4324,1.4331,1.437,1.4378,1.4423,1.439,1.4404,1.4442,1.4452,1.4508,1.4445,1.4499,1.4501,1.449,1.4618,1.4637,1.4731,1.4577,1.4579,1.4581,0,1.4181,1.4215,1.431,1.4334,1.4352,1.4396,1.4434,1.4472,1.4499,1.4502,1.4528,1.4517,1.4572,1.4526,1.4603,1.4559,1.4581,1.459,1.4593,1.4597,1.4545,1.4623,1.4762,1.4775,1.4602,1.46,1.4598,0,1.4269,1.4339,1.4404,1.442,1.445,1.4481,1.4495,1.452,1.4545,1.4579,1.4595,1.4635,1.4657,1.4688,1.4687,1.4654,1.4763,1.4718,1.4765,1.4765,1.4788,1.4787,1.493,1.4806,1.4806,1.4806,1.4805,0,1.4384,1.4443,1.4443,1.4483,1.4548,1.4542,1.4606,1.4617,1.4638,1.4679,1.4662,1.4701,1.4698,1.4737,1.4737,1.4798,1.4809,1.4812,1.4811,1.4812,1.4812,1.4825,1.4818,1.4809,1.4809,1.4808,1.4807,0,1.4493,1.4496,1.4565,1.4587,1.4594,1.464,1.4659,1.4697,1.4702,1.4754,1.4766,1.4775,1.482,1.4822,1.4875,1.4874,1.4949,1.4941,1.4939,1.4937,1.4984,1.4979,1.514,1.516,1.5025,1.5026,1.5027,0,1.4565,1.4609,1.4636,1.4662,1.4677,1.472,1.4745,1.4741,1.4768,1.4802,1.4835,1.4878,1.4912,1.4985,1.4996,1.5035,1.5028,1.5082,1.5034,1.5033,1.5026,1.5022,1.5026,1.509,1.5092,1.5093,1.5094,0,1.4693,1.4692,1.4729,1.4766,1.4797,1.4827,1.4854,1.4876,1.4875,1.4907,1.4952,1.4978,1.5031,1.5074,1.5112,1.5126,1.511,1.5109,1.5122,1.5123,1.5119,1.512,1.4962,1.5105,1.5104,1.5103,1.5103,1.5102,1.4784,1.4821,1.4845,1.4886,1.4906,1.4932,1.4967,1.4977,1.5014,1.5056,1.5052,1.5102,1.5126,1.5176,1.5193,1.5232,1.5213,1.5232,1.5237,1.5241,1.5245,1.5115,1.5239,1.5239,1.5238,1.5238,1.5238,0,1.4908,1.4922,1.4961,1.4999,1.5031,1.5013,1.5042,1.507,1.5114,1.5138,1.5172,1.5223,1.5264,1.5277,1.5317,1.5345,1.5338,1.5355,1.5352,1.5355,1.526,1.5244,1.536,1.536,1.536,1.536,1.536,1.536,1.4977,1.5038,1.504,1.511,1.5123,1.5171,1.5189,1.5212,1.5231,1.5289,1.5323,1.5331,1.5351,1.5391,1.5428,1.5431,1.5445,1.5465,1.5464,1.5375,1.5363,1.5351,1.5335,1.5468,1.5469,1.5556,1.5557,1.5557]},{"header":{"parameterUnit":"m.s-1","parameterCategory":1,"la1":30.2991,"la2":30.254,"lo1":-89.0895,"lo2":-89.0444,"dy":0.0017,"dx":0.0017,"nx":28,"ny":28,"refTime":"2025-03-07T09:00:00:Z","depth":0,"parameterNumber":3,"parameterNumberName":"V-component_of_WINDS"},"data":[0,0,0,0,0,0,0,0,0,0,0,0,0,0,0,0,0,0,0,0,0,0,0,0,0,0,0,0,0,0,0,0,0,0,0,0,0,0,0,0,0,0,0,0,0,0,0,0,0,0,0,0,0,0,0,0,0,0,2.0892,2.0893,0,2.0952,2.0952,2.0953,2.0915,2.0914,2.0912,2.091,2.097,2.0973,2.0976,0,0,0,0,0,0,0,0,0,0,0,0,0,2.0742,2.0745,2.0892,2.0893,2.0893,2.0951,2.0952,2.0953,2.0916,2.0914,2.0912,2.091,2.0969,2.0973,2.0977,0,0,0,0,0,0,0,0,0,0,0,0,0,2.0805,2.0746,2.0892,2.0882,2.0881,2.0951,2.0952,2.0953,2.0916,2.0914,2.0911,2.0909,2.0968,2.0972,2.0977,2.106,0,0,2.0992,2.0994,0,0,0,0,0,0,0,0,2.0802,2.0811,2.0882,2.0883,2.0882,2.0923,2.0921,2.0989,2.0917,2.0903,2.091,2.0907,2.0956,2.0962,2.0979,2.1062,2.1065,2.0992,2.0995,2.0997,2.0999,0,0,0,0,0,0,0,2.0797,2.0808,2.0915,2.0884,2.0884,2.0873,2.0879,2.0934,2.0944,2.0904,2.0901,2.0909,2.0956,2.0974,2.098,2.1066,2.0992,2.0996,2.0999,2.1001,2.1217,2.122,0,0,0,0,0,0,2.0794,2.0805,2.0913,2.0917,2.0835,2.0878,2.0885,2.0913,2.0943,2.0945,2.0911,2.0907,2.0967,2.0975,2.0982,2.1079,2.0997,2.1002,2.1005,2.1214,2.1218,2.1221,0,0,0,0,0,0,2.0791,2.0804,2.0911,2.086,2.0873,2.0884,2.0915,2.0915,2.0934,2.0949,2.095,2.0929,2.0966,2.0975,2.104,2.1081,2.1004,2.1008,2.1211,2.1215,2.1219,2.1275,0,0,0,0,0,0,2.0787,2.0803,2.0836,2.0861,2.0876,2.0969,2.0918,2.0919,2.0943,2.0938,2.0965,2.0967,2.0964,2.1033,2.1045,2.1086,2.1012,2.1207,2.1213,2.1218,2.127,2.1281,2.129,0,0,0,0,0,2.0782,2.0849,2.0838,2.0851,2.0917,2.0972,2.098,2.0976,2.0946,2.0978,2.0987,2.0966,2.1074,2.104,2.1053,2.1096,2.1205,2.1211,2.1218,2.1265,2.1279,2.129,0,0,0,0,0,0,2.0828,2.0853,2.084,2.0918,2.0943,2.0965,2.1006,2.0991,2.1025,2.1019,2.1011,2.1018,2.1085,2.1097,2.1059,2.1176,2.1135,2.1144,2.1166,2.1179,2.1189,2.1185,2.1016,0,0,0,0,0,2.0848,2.0891,2.091,2.0977,2.099,2.0996,2.102,2.1014,2.104,2.105,2.1064,2.1089,2.1128,2.1154,2.1192,2.1271,2.1276,2.1307,2.1317,2.1326,2.1334,2.1374,2.1388,2.1242,2.1242,2.1242,0,0,2.0888,2.0907,2.0935,2.0986,2.1005,2.1049,2.1005,2.1054,2.1086,2.1057,2.1119,2.113,2.1157,2.1229,2.1262,2.1241,2.1375,2.1334,2.134,2.1344,2.1382,2.1396,2.1409,2.1246,2.1245,2.1245,0,0,2.0984,2.1003,2.106,2.108,2.1109,2.1112,2.1125,2.115,2.1156,2.1218,2.1197,2.1234,2.1303,2.1323,2.1342,2.1443,2.1424,2.1455,2.1509,2.1549,2.156,2.157,2.1605,2.1618,2.1463,2.1463,2.1463,0,2.1031,2.1097,2.1091,2.1142,2.1164,2.114,2.1196,2.1215,2.1255,2.1271,2.1247,2.1331,2.1348,2.1423,2.1448,2.1465,2.1479,2.1452,2.1559,2.1569,2.1578,2.1612,2.1625,2.1467,2.1466,2.1466,2.1465,0,2.1152,2.1198,2.1241,2.1279,2.1306,2.136,2.1361,2.1389,2.138,2.1385,2.1447,2.1467,2.1506,2.1524,2.1516,2.1598,2.1584,2.156,2.1518,2.1596,2.1627,2.164,2.1471,2.147,2.1469,2.1468,0,0,2.1281,2.1314,2.133,2.1346,2.1375,2.141,2.1461,2.15,2.1524,2.1551,2.1593,2.165,2.1628,2.1649,2.1644,2.1679,2.1756,2.165,2.1651,2.1668,2.1845,2.1862,2.1877,2.1744,2.1746,2.1748,2.1842,0,2.1378,2.1468,2.1463,2.1547,2.1588,2.1564,2.1609,2.1631,2.1636,2.1671,2.1677,2.1718,2.1686,2.1698,2.1732,2.1739,2.1791,2.1732,2.1781,2.1783,2.1775,2.1894,2.1913,2.2001,2.1854,2.1856,2.1858,0,2.1503,2.1535,2.1623,2.1644,2.1661,2.1701,2.1735,2.177,2.1793,2.1794,2.1818,2.1805,2.1855,2.1812,2.188,2.184,2.186,2.1866,2.1869,2.1874,2.1825,2.19,2.2029,2.2042,2.1877,2.1875,2.1874,0,2.1587,2.1651,2.1711,2.1726,2.1753,2.1781,2.1793,2.1814,2.1837,2.1867,2.1881,2.1916,2.1935,2.1962,2.1959,2.1928,2.2028,2.1984,2.2029,2.2029,2.2051,2.205,2.2184,2.2065,2.2065,2.2064,2.2064,0,2.1695,2.175,2.1749,2.1786,2.1846,2.1839,2.1898,2.1907,2.1925,2.1963,2.1944,2.198,2.1973,2.2008,2.2006,2.2062,2.2071,2.2072,2.2071,2.2074,2.2074,2.2086,2.208,2.2068,2.2067,2.2066,2.2066,0,2.1799,2.1801,2.1865,2.1884,2.189,2.1933,2.1949,2.1983,2.1987,2.2034,2.2045,2.205,2.209,2.2089,2.2135,2.2133,2.2202,2.2193,2.2194,2.2192,2.2236,2.2232,2.2383,2.2402,2.2271,2.2272,2.2274,0,2.1868,2.1909,2.1933,2.1956,2.197,2.2009,2.2032,2.2026,2.2051,2.2079,2.211,2.2148,2.2179,2.2243,2.225,2.2285,2.2277,2.2327,2.2282,2.2283,2.2276,2.2274,2.2277,2.2336,2.2338,2.2339,2.234,0,2.199,2.1988,2.2023,2.2057,2.2085,2.2111,2.2136,2.2156,2.2153,2.2181,2.2222,2.2245,2.2291,2.2329,2.2361,2.2372,2.2355,2.2354,2.2366,2.2369,2.2368,2.2368,2.2217,2.2351,2.235,2.2349,2.2348,2.2348,2.2078,2.2113,2.2134,2.2172,2.219,2.2212,2.2245,2.2252,2.2286,2.2323,2.2317,2.2362,2.2383,2.2425,2.2439,2.2473,2.2455,2.2473,2.2477,2.2481,2.2486,2.2362,2.2479,2.2479,2.2478,2.2478,2.2478,0,2.2198,2.221,2.2245,2.228,2.2309,2.2291,2.2316,2.2342,2.2382,2.2402,2.2432,2.2478,2.2514,2.2523,2.2557,2.2583,2.2576,2.2592,2.259,2.2592,2.2501,2.2486,2.2597,2.2597,2.2597,2.2597,2.2597,2.2597,2.2264,2.2321,2.2322,2.2387,2.2398,2.2442,2.2458,2.2479,2.2495,2.2547,2.2576,2.2582,2.2598,2.2633,2.2664,2.2666,2.2679,2.2698,2.2697,2.2611,2.2599,2.2588,2.2574,2.2701,2.2702,2.2786,2.2786,2.2787]}]]